Malaga, Spain

5:28 PM CEST on September 24, 2017 (GMT +0200)
Malaga

Weather History for LEMG - February, 2012

Change the Weather History Date:

Wednesday, February 1, 2012

  Actual Average Record
Temperature  
Mean Temperature 58 °F -  
Max Temperature 68 °F 61 °F 75 °F (2013)
Min Temperature 48 °F 45 °F 37 °F (2005)
Degree Days  
Heating Degree Days 7    
Growing Degree Days 8 (Base 50)    
Moisture  
Dew Point 27 °F    
Average Humidity 31    
Maximum Humidity 46    
Minimum Humidity 13    
Precipitation  
Precipitation 0.00 in 0.10 in - ()
Sea Level Pressure  
Sea Level Pressure 29.99 in    
Wind  
Wind Speed 12 mph ()    
Max Wind Speed 21 mph    
Max Gust Speed -    
Visibility 19.0 miles    
Events      
Averages and records for this station are not official NWS values.
T = Trace of Precipitation, MM = Missing Value Source: Averaged Metar Reports

Daily Weather History Graph

Daily Weather History Graph

Search for Another Location

Airport or City:

Trip Planner

Search our weather history database for the weather conditions in past years. The results will help you decide how hot, cold, wet, or windy it might be!

Date:

Astronomy

Feb. 01, 2012 Rise Set
Actual Time 8:20 AM CET 6:42 PM CET
Civil Twilight 7:53 AM CET 7:10 PM CET
Nautical Twilight 7:22 AM CET 7:41 PM CET
Astronomical Twilight 6:51 AM CET 8:11 PM CET
Moon 1:03 PM CET (2/1) 2:50 AM CET (2/1)
Length of Visible Light 11h 17m
Length of Day
10h 22m
Waxing Gibbous, 62% of the Moon is Illuminated
Feb 1
Waxing Gibbous
Feb 7
Full
Feb 14
Last Quarter
Feb 21
New
Mar 1
First Quarter

Hourly Weather History & Observations

Time (CET) Temp. Dew Point Humidity Pressure Visibility Wind Dir Wind Speed Gust Speed Precip Events Conditions
12:00 AM 51.8 °F 30.2 °F 44% 30.12 in - WNW 5.8 mph - N/A   Clear
12:30 AM 55.4 °F 26.6 °F 33% 30.12 in - West 12.7 mph - N/A   Clear
1:00 AM 54 °F 23 °F 18% 30.13 in 19 mi West 15.0 mph - -  
1:00 AM 55.4 °F 24.8 °F 31% 30.12 in - West 15.0 mph - N/A   Clear
1:30 AM 55.4 °F 21.2 °F 26% 30.09 in - West 15.0 mph - N/A   Clear
2:00 AM 55.4 °F 21.2 °F 26% 30.09 in - West 17.3 mph - N/A   Clear
2:30 AM 53.6 °F 23.0 °F 30% 30.09 in - West 13.8 mph - N/A   Clear
3:00 AM 48.2 °F 28.4 °F 46% 30.06 in - WNW 10.4 mph - N/A   Clear
3:30 AM 50.0 °F 28.4 °F 43% 30.06 in - WNW 11.5 mph - N/A   Clear
4:00 AM 55.4 °F 24.8 °F 31% 30.06 in - West 15.0 mph - N/A   Clear
4:30 AM 55.4 °F 24.8 °F 31% 30.06 in - West 18.4 mph - N/A   Clear
5:00 AM 53.6 °F 26.6 °F 35% 30.04 in - West 18.4 mph - N/A   Clear
5:30 AM 51.8 °F 28.4 °F 41% 30.04 in - WNW 16.1 mph - N/A   Clear
6:00 AM 53.6 °F 26.6 °F 35% 30.04 in - WNW 19.6 mph - N/A   Clear
6:30 AM 53.6 °F 26.6 °F 35% 30.04 in - WNW 18.4 mph - N/A   Clear
7:00 AM 54 °F 26 °F 21% 30.04 in 19 mi West 20.7 mph - -  
7:00 AM 55.4 °F 26.6 °F 33% 30.04 in - West 20.7 mph - N/A   Clear
7:30 AM 55.4 °F 26.6 °F 33% 30.04 in - West 20.7 mph - N/A   Clear
8:00 AM 55.4 °F 26.6 °F 33% 30.04 in - West 20.7 mph - N/A   Clear
8:30 AM 53.6 °F 26.6 °F 35% 30.04 in - West 19.6 mph - N/A   Clear
9:00 AM 53.6 °F 28.4 °F 38% 30.04 in - WNW 18.4 mph - N/A   Clear
9:30 AM 55.4 °F 28.4 °F 36% 30.04 in - WNW 18.4 mph - N/A   Clear
10:00 AM 55.4 °F 30.2 °F 38% 30.04 in - WNW 13.8 mph - N/A   Clear
10:30 AM 57.2 °F 30.2 °F 36% 30.04 in - WNW 16.1 mph - N/A   Clear
11:00 AM 59.0 °F 30.2 °F 34% 30.04 in - West 16.1 mph - N/A   Clear
11:30 AM 60.8 °F 30.2 °F 31% 30.04 in - West 16.1 mph - N/A   Clear
12:00 PM 60.8 °F 30.2 °F 31% 30.04 in - WNW 15.0 mph - N/A   Clear
12:30 PM 62.6 °F 28.4 °F 27% 30.01 in - WNW 16.1 mph - N/A   Clear
1:00 PM 63 °F 37 °F 27% 30.01 in 25 mi WNW 10.4 mph - -   Clear
1:00 PM 64.4 °F 30.2 °F 28% 30.01 in - WNW 10.4 mph - N/A   Clear
1:30 PM 64.4 °F 28.4 °F 26% 29.98 in - WNW 11.5 mph - N/A   Clear
2:00 PM 64.4 °F 30.2 °F 28% 29.98 in - NW 9.2 mph - N/A   Clear
2:30 PM 66.2 °F 30.2 °F 26% 29.95 in - WNW 6.9 mph - N/A   Clear
3:00 PM 66.2 °F 32.0 °F 28% 29.95 in - NW 6.9 mph - N/A   Clear
3:30 PM 66.2 °F 32.0 °F 28% 29.92 in - WNW 4.6 mph - N/A   Clear
4:00 PM 68.0 °F 30.2 °F 24% 29.92 in - NW 6.9 mph - N/A   Clear
4:30 PM 66.2 °F 30.2 °F 26% 29.92 in - NW 6.9 mph - N/A   Clear
5:00 PM 66.2 °F 28.4 °F 24% 29.89 in - NW 8.1 mph - N/A   Clear
5:30 PM 66.2 °F 26.6 °F 23% 29.89 in - NW 9.2 mph - N/A   Clear
6:00 PM 64.4 °F 24.8 °F 22% 29.89 in - NW 8.1 mph - N/A   Clear
6:30 PM 62.6 °F 24.8 °F 24% 29.89 in - WNW 4.6 mph - N/A   Clear
7:00 PM 61 °F 23 °F 13% 29.91 in 25 mi WNW 4.6 mph - -   Clear
7:00 PM 60.8 °F 23.0 °F 23% 29.89 in - West 5.8 mph - N/A   Clear
7:30 PM 59.0 °F 24.8 °F 27% 29.89 in - West 8.1 mph - N/A   Clear
8:00 PM 59.0 °F 23.0 °F 25% 29.89 in - WNW 10.4 mph - N/A   Clear
8:30 PM 59.0 °F 23.0 °F 25% 29.92 in - WNW 11.5 mph - N/A   Clear
9:00 PM 57.2 °F 24.8 °F 29% 29.92 in - WNW 10.4 mph - N/A   Clear
9:30 PM 53.6 °F 28.4 °F 38% 29.89 in - NW 9.2 mph - N/A   Clear
10:00 PM 55.4 °F 26.6 °F 33% 29.89 in - WNW 15.0 mph - N/A   Clear
10:30 PM 53.6 °F 28.4 °F 38% 29.89 in - West 12.7 mph - N/A   Clear
11:00 PM 53.6 °F 30.2 °F 41% 29.89 in - WNW 13.8 mph - N/A   Clear
11:30 PM 53.6 °F 32.0 °F 44% 29.89 in - WNW 13.8 mph - N/A   Clear